Location: Arboyeti
(42.1122°N, 44.6017°E)
Time: 15:35:27
(UTC+00:00)

ATLAS 2AS CENTAUR R/B - Pass Details

Date: 19 April 2021
Orbit: 949 x 1263 km, 63.7° (Epoch: 02 May)

Event Time Altitude Azimuth Distance (km) Brightness Sun altitude
Rises 17:26:30 0° 239° (WSW) 4,196 6.1 -17.4°
Reaches altitude 10° 17:29:28 10° 246° (WSW) 3,242 5.6 -17.9°
Maximum altitude 17:36:55 43° 316° (NW) 1,697 4.2 -19.0°
Drops below altitude 10° 17:44:15 10° 27° (NNE) 3,187 5.3 -20.1°
Sets 17:47:10 0° 34° (NE) 4,121 5.8 -20.5°
